AISTechSat 3 (44103 NORAD) Tracking and Keplerian Element Data

This shows tracking and keplerian element data for the satellite.

Feedback or suggestion? Click here.




ElementValue
Catalog44103
NameAISTechSat 3
Epoch Orbit1527
Epoch Day191.75920133
Epoch Year2019
RAAN251.5783
Inclination97.4551
Eccentricity0.0012334
Argument of Perigee315.0671
Mean Anonmoly44.9566
Mean Motion15.22646282
Decay Rate5.93E-06
L11 44103U 19018AB 19191.75920133 .00000593 00000-0 28518-4 0 9997
L22 44103 97.4551 251.5783 0012334 315.0671 44.9566 15.22646282 15279

Live tracking and technical data element details for AISTechSat 3 (NORAD 44103). AISTechSat 3 can be tracked NOW for your location showing map with azimuth and elevation plus other details from your city location.

Track the satellite on the map from your city or location and see movement details for azimuth, elevation, latitude, longitude, range, height, and movement on the map or in text.







IsCatalogInMostPopularTable: catalog: 44103, numindb: 48
Update: records affected: 1



GetName: 44103 AISTechSat 3

Hit Count: updated at: Mon, 15 Jul 2019 22:30:41 GMT